DW7857 Weather Reports


time (UTC)temp
F
wind
direction
speed
knots
gust
knots
rain 1hr
in
rain 24hr
in
rain mn
in
humidity
%
barometer
mb
20190617050027 56 154 7.0 9.6 0.00 0.02 0.01 89 1013.2
20190617045027 56 199 7.0 12.2 0.00 0.02 0.01 89 1013.1
20190617044027 56 214 7.0 10.4 0.00 0.04 0.01 89 1013.0
20190617043027 56 216 5.2 7.8 0.00 0.04 0.01 89 1013.0
20190617042027 56 178 4.3 6.1 0.00 0.04 0.01 89 1013.0
20190617041027 56 205 7.8 10.4 0.00 0.05 0.01 89 1012.9
20190617040027 56 200 7.0 10.4 0.00 0.05 0.01 89 1012.9
20190617035027 56 223 7.0 13.0 0.00 0.07 0.01 89 1012.8
20190617034027 56 209 7.0 10.4 0.00 0.07 0.01 89 1012.8
20190617033027 56 227 5.2 7.0 0.01 0.07 0.01 88 1013.0
20190617032027 56 228 7.0 7.8 0.01 0.07 0.01 88 1012.9
20190617031027 56 249 4.3 7.8 0.01 0.07 0.01 88 1013.0
20190617030027 56 234 7.0 7.8 0.01 0.07 0.01 88 1012.9
20190617025027 56 239 6.1 9.6 0.01 0.07 0.01 87 1012.9
20190617024027 56 223 5.2 7.0 0.01 0.07 0.01 87 1013.0
20190617023027 56 328 5.2 7.0 0.00 0.06 0.00 87 1013.0
20190617022027 56 201 8.7 11.3 0.00 0.06 0.00 86 1012.9
20190617021027 56 164 9.6 13.0 0.00 0.06 0.00 86 1012.9
20190617020027 56 190 9.6 13.0 0.00 0.06 0.00 86 1013.1
20190617015027 57 218 8.7 13.9 0.00 0.06 0.00 86 1013.2
20190617014027 56 214 10.4 13.9 0.00 0.06 0.00 86 1013.1
20190617013027 56 171 7.8 9.6 0.00 0.06 0.00 86 1013.3
20190617012027 57 200 8.7 13.0 0.00 0.06 0.00 86 1013.0
20190617011027 57 194 8.7 13.0 0.00 0.06 0.00 86 1013.2
20190617010027 57 267 10.4 13.9 0.00 0.06 0.00 86 1013.2
20190617005018 56 226 7.8 9.6 0.00 0.06 0.00 86 1013.3
20190617004027 56 206 9.6 12.2 0.00 0.06 0.00 87 1013.2
20190617003027 56 193 10.4 13.9 0.00 0.06 0.00 86 1013.2
20190617002028 56 197 7.8 10.4 0.00 0.06 0.00 86 1013.5
20190617001027 56 223 9.6 13.0 0.00 0.06 0.00 86 1013.4
20190617000021 56 216 10.4 16.5 0.00 0.06 0.00 86 1013.4
20190616235028 57 233 10.4 13.0 0.00 0.06 0.06 86 1013.5
20190616234028 56 203 8.7 13.9 0.00 0.06 0.06 85 1013.4
20190616233028 56 190 7.8 12.2 0.00 0.06 0.06 85 1013.5
20190616232027 56 147 8.7 12.2 0.00 0.06 0.06 85 1013.5
20190616231027 57 196 7.8 13.0 0.00 0.06 0.06 85 1013.6
20190616230027 56 190 9.6 13.0 0.00 0.06 0.06 85 1013.4
20190616225028 57 205 7.8 10.4 0.00 0.06 0.06 84 1013.7
20190616224027 57 198 7.8 10.4 0.00 0.06 0.06 84 1013.8
20190616223028 57 196 9.6 14.8 0.00 0.06 0.06 84 1013.7
20190616222027 57 199 7.8 9.6 0.00 0.06 0.06 84 1013.7
20190616221027 57 215 8.7 10.4 0.00 0.06 0.06 84 1013.6
20190616220027 57 201 8.7 15.6 0.00 0.06 0.06 84 1013.8
20190616215028 57 169 10.4 13.9 0.00 0.06 0.06 84 1013.7
20190616214027 57 215 10.4 14.8 0.00 0.06 0.06 84 1013.7
20190616213027 57 216 8.7 13.0 0.00 0.06 0.06 84 1013.7
20190616212028 57 215 10.4 13.0 0.00 0.06 0.06 84 1013.7
20190616211027 57 214 10.4 13.0 0.00 0.06 0.06 84 1013.7
20190616210027 57 231 10.4 19.1 0.00 0.06 0.06 84 1013.7
20190616205027 57 234 9.6 13.0 0.00 0.06 0.06 84 1013.7
20190616204027 57 191 8.7 12.2 0.00 0.06 0.06 83 1013.5
20190616203029 57 194 9.6 13.0 0.00 0.06 0.06 83 1013.5
20190616202028 57 207 9.6 13.0 0.00 0.06 0.06 83 1013.5
20190616201107 57 262 6.1 9.6 0.00 0.06 0.06 82 1013.2
20190616200029 57 196 7.8 13.0 0.00 0.06 0.06 82 1013.5
20190616195029 57 127 7.0 13.0 0.00 0.06 0.06 82 1013.4
20190616194029 57 193 8.7 11.3 0.00 0.06 0.06 82 1013.3
20190616193028 58 207 9.6 15.6 0.00 0.06 0.06 81 1013.3
20190616192029 58 230 10.4 13.9 0.00 0.06 0.06 81 1013.3
20190616191028 58 151 10.4 12.2 0.00 0.06 0.06 81 1013.4
20190616190028 58 211 9.6 13.0 0.00 0.06 0.06 80 1013.2
20190616185029 58 169 9.6 14.8 0.00 0.06 0.06 80 1013.3
20190616184029 58 202 8.7 12.2 0.00 0.06 0.06 80 1013.4
20190616183029 58 222 7.0 12.2 0.00 0.06 0.06 80 1013.5
20190616182029 58 187 8.7 13.9 0.00 0.06 0.06 80 1013.5
20190616181029 58 207 8.7 14.8 0.00 0.06 0.06 79 1013.7
20190616180028 58 217 10.4 14.8 0.00 0.06 0.06 79 1013.6
20190616175029 59 166 7.0 10.4 0.00 0.06 0.06 80 1013.3
20190616174029 59 216 7.0 13.0 0.00 0.06 0.06 82 1013.3
20190616173029 58 174 9.6 13.0 0.00 0.06 0.06 81 1013.3
20190616172029 59 162 5.2 13.0 0.00 0.06 0.06 81 1013.3
20190616171028 59 192 8.7 13.0 0.00 0.06 0.06 80 1013.4
20190616170016 59 196 7.8 13.0 0.00 0.06 0.06 80 1013.3
20190616165029 59 160 7.8 13.9 0.00 0.06 0.06 77 1013.2
20190616164029 60 166 7.8 12.2 0.00 0.06 0.06 75 1013.1
20190616163028 60 179 9.6 13.9 0.00 0.06 0.06 75 1013.2
20190616162029 60 140 9.6 16.5 0.00 0.06 0.06 74 1013.3
20190616161028 61 247 10.4 14.8 0.00 0.06 0.06 72 1013.0
20190616160028 63 216 8.7 16.5 0.00 0.06 0.06 70 1013.2
20190616155029 65 177 8.7 14.8 0.00 0.06 0.06 63 1013.2
20190616154029 65 204 10.4 14.8 0.00 0.06 0.06 65 1013.1
20190616153029 66 191 11.3 15.6 0.00 0.06 0.06 61 1013.3
20190616152029 66 243 8.7 12.2 0.00 0.06 0.06 61 1013.2
20190616151029 66 223 8.7 13.0 0.00 0.06 0.06 61 1013.2
20190616150029 67 236 10.4 16.5 0.00 0.06 0.06 59 1013.3
20190616145029 68 203 7.8 11.3 0.00 0.06 0.06 60 1013.2
20190616144029 67 270 7.8 10.4 0.00 0.06 0.06 60 1013.3
20190616143029 66 162 7.8 13.0 0.00 0.06 0.06 64 1013.2
20190616142029 64 204 7.0 12.2 0.00 0.06 0.06 67 1013.1
20190616141028 63 177 7.8 13.9 0.00 0.06 0.06 72 1013.1
20190616140029 62 248 8.7 10.4 0.00 0.06 0.06 73 1013.3
20190616135028 62 277 7.0 13.0 0.00 0.06 0.06 73 1013.2
20190616134029 62 267 7.0 11.3 0.01 0.06 0.06 76 1013.2
20190616133030 62 129 9.6 13.9 0.01 0.06 0.06 76 1013.3
20190616132029 61 214 7.8 13.0 0.01 0.06 0.06 78 1013.2
20190616131028 61 241 7.0 12.2 0.01 0.06 0.06 80 1013.2
20190616130029 61 225 12.2 20.0 0.01 0.06 0.06 79 1012.9
20190616125029 61 231 9.6 13.0 0.01 0.06 0.06 76 1012.9
20190616124029 64 212 8.7 15.6 0.00 0.05 0.05 67 1012.8
20190616123029 66 195 7.8 12.2 0.00 0.05 0.05 65 1013.1
20190616122029 66 214 8.7 10.4 0.00 0.05 0.05 66 1012.8
20190616121029 65 239 9.6 12.2 0.00 0.05 0.05 70 1012.7
20190616120017 63 222 7.0 10.4 0.00 0.05 0.05 73 1012.7
20190616115030 63 246 7.8 13.0 0.00 0.05 0.05 77 1012.8
20190616114030 62 314 10.4 13.0 0.00 0.05 0.05 74 1012.6
20190616113030 62 190 13.0 15.6 0.00 0.05 0.05 76 1012.5
20190616112030 62 206 9.6 14.8 0.00 0.05 0.05 73 1012.7
20190616111029 63 218 9.6 12.2 0.00 0.05 0.05 72 1012.4
20190616110017 64 198 10.4 14.8 0.00 0.05 0.05 66 1012.3
20190616105029 65 256 7.0 10.4 0.00 0.05 0.05 64 1012.2
20190616104031 65 174 9.6 14.8 0.00 0.05 0.05 67 1012.1
20190616103030 64 245 8.7 11.3 0.00 0.05 0.05 70 1012.0
20190616102030 63 204 11.3 13.9 0.00 0.05 0.05 72 1011.8
20190616101030 63 192 7.0 17.4 0.00 0.05 0.05 72 1012.0
20190616100030 63 203 8.7 13.0 0.00 0.05 0.05 72 1011.7
20190616095030 63 215 9.6 13.0 0.00 0.05 0.05 71 1011.7
20190616094030 63 241 9.6 14.8 0.00 0.05 0.05 72 1011.8
20190616093030 63 209 7.8 13.0 0.00 0.05 0.05 72 1011.8
20190616092030 64 201 7.0 8.7 0.00 0.05 0.05 68 1011.7
20190616091029 64 182 7.0 8.7 0.00 0.05 0.05 66 1011.5
20190616090030 65 233 9.6 13.0 0.00 0.05 0.05 65 1011.4
20190616085029 64 212 7.8 9.6 0.00 0.05 0.05 67 1011.5
20190616084029 64 251 7.8 9.6 0.00 0.05 0.05 69 1011.4
20190616083030 64 225 7.0 13.0 0.00 0.05 0.05 70 1011.4
20190616082030 64 212 7.8 13.0 0.00 0.05 0.05 69 1011.5
20190616081030 64 244 7.0 9.6 0.00 0.05 0.05 69 1011.5
20190616080030 64 239 5.2 7.0 0.00 0.05 0.05 72 1011.1
20190616075030 62 204 4.3 7.0 0.00 0.06 0.05 82 1011.3
20190616074030 59 215 5.2 7.0 0.00 0.06 0.05 83 1011.1
20190616073030 58 271 4.3 7.0 0.00 0.07 0.05 83 1011.0
20190616072030 58 151 6.1 9.6 0.00 0.07 0.05 84 1010.7
20190616071030 58 222 5.2 7.8 0.00 0.07 0.05 84 1010.9
20190616070030 58 229 8.7 11.3 0.00 0.07 0.05 86 1010.9
20190616065030 58 198 5.2 7.0 0.00 0.08 0.05 89 1010.8
20190616064030 57 170 5.2 8.7 0.00 0.09 0.05 90 1010.7
20190616063030 57 218 5.2 8.7 0.00 0.11 0.05 91 1010.5
20190616062031 57 204 3.5 6.1 0.00 0.11 0.05 91 1010.4
20190616061030 56 179 7.0 11.3 0.00 0.11 0.05 92 1010.5
20190616060029 56 235 7.8 11.3 0.00 0.11 0.05 92 1010.2
20190616055030 56 196 6.1 8.7 0.00 0.12 0.05 92 1010.2
20190616054030 56 170 6.1 7.8 0.01 0.12 0.05 92 1010.1
20190616053030 56 168 5.2 7.0 0.01 0.12 0.05 92 1010.1
20190616052030 56 189 7.0 11.3 0.01 0.12 0.05 92 1010.0
20190616051030 56 200 7.0 11.3 0.02 0.12 0.05 92 1009.8